Regional Weather Roundup
Issued by NWS

Home | Current Version | Previous Version | Graphics & Text | Print | Product List | Glossary On
Versions: 1 2 3 4 5 6 7 8 9 10 11 12 13 14 15 16 17 18 19 20 21 22 23 24 25 26 27 28 29 30 31 32 33 34 35 36 37 38 39 40 41 42 43 44 45 46 47 48 49 50
437
ASUS43 KLOT 140808
RWRIL

ILLINOIS REGIONAL WEATHER ROUNDUP
NATIONAL WEATHER SERVICE CHICAGO/ROMEOVILLE IL
200 AM CST SUN FEB 14 2016

NOTE: "FAIR" INDICATES FEW OR NO CLOUDS BELOW 12,000 FEET WITH NO
SIGNIFICANT WEATHER AND/OR OBSTRUCTIONS TO VISIBILITY.

* THESE STATIONS ARE NOT UNDER NWS QUALITY CONTROL. THEY ALSO MAY NOT
  REPORT WEATHER SUCH AS PRECIPITATION OR FOG.

ILZ001-002-007-009-015-016-024-140900-
NORTHWEST ILLINOIS

CITY           SKY/WX    TMP DP  RH WIND       PRES   REMARKS
MOLINE         CLOUDY    19   0  43 SE10      30.37F WCI   7
STERLING*      CLOUDY    16   0  48 E8        30.38S WCI   5
SAVANNA*       CLOUDY    15   1  55 SE6       30.40F WCI   6
$$

ILZ003-004-008-010-011-017-018-140900-
NORTH CENTRAL ILLINOIS

CITY           SKY/WX    TMP DP  RH WIND       PRES   REMARKS
ROCKFORD       CLOUDY    12   0  58 SE8       30.43S WCI   0
FREEPORT*      CLOUDY    11   1  64 SE7       30.41S WCI   1
ROCHELLE*      CLOUDY    14   1  57 SE8       30.42S WCI   3
DE KALB*       CLOUDY    12   2  64 SE6       30.41S WCI   3
$$

ILZ005-006-012>014-019>023-140900-
NORTHEAST ILLINOIS

CITY           SKY/WX    TMP DP  RH WIND       PRES   REMARKS
CHICAGO-OHARE  CLOUDY    11  -2  56 E5        30.43F WCI   3
CHICAGO-MIDWAY CLOUDY    13  -1  54 SE6       30.44F WCI   4
AURORA         CLOUDY    15   2  56 E8        30.43S WCI   4
LANSING*       CLOUDY    11   1  63 SE7       30.45F WCI   1
JOLIET*        CLOUDY    15   6  67 SE7       30.45R WCI   5
WAUKEGAN       PTCLDY     3  -2  79 CALM      30.42F
DUPAGE AIRPORT CLOUDY    11  -2  56 E3        30.42S
KANKAKEE*      MOCLDY    14   5  66 SE7       30.46R WCI   4
WHEELING       PTCLDY     8   1  73 CALM      30.44F
MORRIS*        CLOUDY    15   3  59 SE7       30.41S WCI   5
ROMEOVILLE*    PTCLDY    13   3  66 SE7       30.44S WCI   2
NORTHERLY ISL    N/A     13  -1  54 S2          N/A
$$

LMZ740>746-140900-
SOUTHERN LAKE MICHIGAN

STATION/POSITION SKY/WX   TEMP    WIND        PRES    VSBY  WAVE
                          AIR SEA DIR/SP/G                  HT/PER
                          (F)     (DEG/KT/KT) (MB)    (MI)  (FT/S)
HARRISON CRIB              17     190/  7/ 10   N/A
BURNHAM HARBOR             13     180/  4/  5   N/A
CALUMET HARBOR             12     140/  5/  8 1030.6F
BURNS HARBOR               11     180/  7/ 10 1032.2S
MICHIGAN CITY               9     130/  8/  9   N/A
$$

ILZ025>027-034>036-040-047-049-050-058-095>099-140900-
WEST-CENTRAL ILLINOIS

CITY           SKY/WX    TMP DP  RH WIND       PRES   REMARKS
QUINCY         CLOUDY    17  12  80 E13       30.32F WCI   4
GALESBURG*     LGT SNOW  16  13  88 SE7       30.36F WCI   6
MACOMB*        LGT SNOW  16  14  93 SE12      30.38F WCI   3
JACKSONVILLE*  CLOUDY    22  11  63 E10       30.37F WCI  11
PITTSFIELD*    CLOUDY    20  11  67 E12       30.35F WCI   9
$$

ILZ028>032-037-038-041>044-048-051>054-059>061-140900-
CENTRAL ILLINOIS

CITY           SKY/WX    TMP DP  RH WIND       PRES   REMARKS
PONTIAC        CLOUDY    18   5  58 SE9       30.43F WCI   7
BLOOMINGTON    CLOUDY    17   5  59 SE9       30.40F WCI   6
DECATUR        LGT SNOW  16  10  77 SE9       30.41S VSB 1   WCI   4
PEORIA         CLOUDY    19   3  49 S7        30.41F WCI  10
LACON*         CLOUDY    18   1  47 SE8       30.41F WCI   7
LINCOLN*       LGT SNOW  17  14  89 SE6       30.42S VSB 1   WCI   8
SPRINGFIELD    MIX PCPN  20  10  65 SE12      30.39F WCI   8
TAYLORVILLE    CLOUDY    19   9  63 E10       30.40F WCI   8
$$

ILZ033-039-045-046-055>057-062-063-140900-
EAST-CENTRAL ILLINOIS

CITY           SKY/WX    TMP DP  RH WIND       PRES   REMARKS
CHAMPAIGN      CLOUDY    17   5  59 E9        30.41F WCI   6
RANTOUL*       CLOUDY    19   5  55 SE8       30.42F WCI   9
MATTOON        CLOUDY    17   4  56 SE10      30.41F WCI   5
PARIS*         CLOUDY    17   4  56 SE7       30.44F WCI   8
$$

ILZ079-100>102-140900-
SOUTHWEST ILLINOIS

CITY           SKY/WX    TMP DP  RH WIND       PRES   REMARKS
ALTON          CLOUDY    21  10  62 E8        30.39S WCI  11
BELLEVILLE     CLOUDY    23   6  49 E9        30.38S WCI  13
CAHOKIA*       CLOUDY    24   6  46 E8        30.39S WCI  15
SPARTA*        CLOUDY    22   8  53 SE7       30.39F WCI  14
$$

ILZ064>066-069>071-074>076-080>082-084>086-088>090-092>094-140900-
SOUTH-CENTRAL ILLINOIS

CITY           SKY/WX    TMP DP  RH WIND       PRES   REMARKS
CARBONDALE     CLOUDY    23   7  50 E8        30.39S WCI  14
CAIRO*         CLOUDY    25  13  59 E9        30.37F WCI  16
EFFINGHAM*     CLOUDY    19   8  62 E7        30.43S WCI  10
MARION         CLOUDY    25   9  50 E5        30.40R WCI  19
MT. VERNON     CLOUDY    21   3  45 E6        30.41R WCI  14
CENTRALIA*     CLOUDY    23   8  52 E7        30.39R WCI  14
SALEM*         CLOUDY    22   6  49 E8        30.40S WCI  13
METROPOLIS*    CLOUDY    25  11  55 E7        30.37F WCI  17
$$

ILZ067-068-072-073-078-083-087-091-140900-
SOUTHEAST ILLINOIS

CITY           SKY/WX    TMP DP  RH WIND       PRES   REMARKS
LAWRENCEVILLE  CLOUDY    20   3  48 E8        30.45F WCI  10
FLORA*         CLOUDY    22   6  50 E9        30.41F WCI  12
FAIRFIELD*     CLOUDY    22   5  48 E9        30.40F WCI  12
HARRISBURG*    CLOUDY    24  10  54 E12       30.40S WCI  13
ROBINSON*      CLOUDY    19   3  51 E8        30.46F WCI   8
CARMI*         CLOUDY    22   8  54 E10       30.40F WCI  12
$$

ABBREVIATIONS USED IN REMARKS
   TC - TEMPERATURE IN CELSIUS
  WCI - WIND CHILL INDEX
   HX - HEAT INDEX
  VSB - VISIBILITY
$$





USA.gov is the U.S. government's official web portal to all federal, state and local government web resources and services.